When you browse on this site, cookies collect data to enhance your experience and personalize the content and advertising you see.
Visit our Privacy Policy to learn more. By continuing to use the site, you agree to this use of cookies and data.
  • Em Portugal
  • Lista de países
  • Para 7 dias
  • Temperatura da água
  • Mapa do tempo
  • Widgets de tempo
  • user-avatar
    Iniciar Sessão

    Previsão horária em Newcastle

    Hoje, 3 Junho, Quarta-feira

    Tempo Temperatura Precipitação Vento Pressão Humidade
    00:00 +7°C° 0 mm 5 m/s 763 mmHg 72%
    01:00 +7°C° 0 mm 5 m/s 763 mmHg 74%
    02:00 +7°C° 0 mm 5 m/s 763 mmHg 75%
    03:00 +7°C° 0 mm 5 m/s 763 mmHg 76%
    04:00 +8°C° 0 mm 5 m/s 763 mmHg 77%
    05:00 +7°C° 0 mm 5 m/s 763 mmHg 78%
    06:00 +7°C° 0 mm 5 m/s 764 mmHg 79%
    07:00 +7°C° 0 mm 5 m/s 764 mmHg 80%
    08:00 +9°C° 0 mm 5 m/s 765 mmHg 73%
    09:00 +12°C° 0 mm 5 m/s 765 mmHg 67%
    10:00 +14°C° 0 mm 6 m/s 765 mmHg 60%
    11:00 +15°C° 0 mm 6 m/s 765 mmHg 56%
    12:00 +16°C° 0 mm 6 m/s 765 mmHg 51%
    13:00 +18°C° 0 mm 7 m/s 765 mmHg 47%
    14:00 +17°C° 0 mm 7 m/s 766 mmHg 50%
    15:00 +16°C° 0 mm 7 m/s 766 mmHg 53%
    16:00 +15°C° 0 mm 7 m/s 767 mmHg 56%
    17:00 +14°C° 0 mm 7 m/s 767 mmHg 60%
    18:00 +12°C° 0 mm 7 m/s 768 mmHg 65%
    19:00 +11°C° 0 mm 7 m/s 769 mmHg 69%
    20:00 +11°C° 0.1 mm 7 m/s 769 mmHg 70%
    21:00 +11°C° 0.1 mm 7 m/s 770 mmHg 72%
    22:00 +11°C° 0.1 mm 7 m/s 770 mmHg 73%
    23:00 +10°C° 0.1 mm 7 m/s 771 mmHg 75%

    Amanhã, 4 Junho, Quinta-feira

    Tempo Temperatura Precipitação Vento Pressão Humidade
    00:00 +9°C° 0.1 mm 7 m/s 771 mmHg 76%
    01:00 +9°C° 0.1 mm 7 m/s 771 mmHg 78%
    02:00 +8°C° 0.2 mm 6 m/s 771 mmHg 77%
    03:00 +8°C° 0.2 mm 6 m/s 771 mmHg 75%
    04:00 +8°C° 0.2 mm 5 m/s 771 mmHg 74%
    05:00 +8°C° 0.1 mm 5 m/s 772 mmHg 74%
    06:00 +8°C° 0.1 mm 5 m/s 772 mmHg 73%
    07:00 +8°C° 0.1 mm 5 m/s 772 mmHg 73%
    08:00 +9°C° 0.1 mm 5 m/s 772 mmHg 71%
    09:00 +10°C° 0.1 mm 5 m/s 773 mmHg 69%
    10:00 +12°C° 0.1 mm 5 m/s 773 mmHg 66%
    11:00 +13°C° 0.1 mm 5 m/s 772 mmHg 65%
    12:00 +14°C° 0.1 mm 5 m/s 772 mmHg 64%
    13:00 +15°C° 0.1 mm 5 m/s 771 mmHg 62%
    14:00 +15°C° 0.2 mm 5 m/s 771 mmHg 66%
    15:00 +14°C° 0.2 mm 5 m/s 771 mmHg 70%
    16:00 +14°C° 0.2 mm 5 m/s 771 mmHg 74%
    17:00 +13°C° 0.1 mm 4 m/s 771 mmHg 78%
    18:00 +12°C° 0.1 mm 4 m/s 772 mmHg 82%
    19:00 +12°C° 0.1 mm 4 m/s 772 mmHg 86%
    20:00 +11°C° 0 mm 4 m/s 772 mmHg 87%
    21:00 +10°C° 0 mm 3 m/s 773 mmHg 88%
    22:00 +10°C° 0 mm 3 m/s 773 mmHg 89%
    23:00 +9°C° 0 mm 3 m/s 772 mmHg 91%

    Depois de amanhã, 5 Junho, Sexta-feira

    Tempo Temperatura Precipitação Vento Pressão Humidade
    00:00 +8°C° 0 mm 3 m/s 772 mmHg 92%
    01:00 +8°C° 0 mm 3 m/s 772 mmHg 93%
    02:00 +8°C° 0 mm 3 m/s 772 mmHg 94%
    03:00 +7°C° 0 mm 3 m/s 771 mmHg 94%
    04:00 +7°C° 0 mm 3 m/s 771 mmHg 95%
    05:00 +7°C° 0 mm 3 m/s 771 mmHg 95%
    06:00 +7°C° 0 mm 2 m/s 772 mmHg 95%
    07:00 +7°C° 0 mm 2 m/s 772 mmHg 94%
    08:00 +9°C° 0 mm 2 m/s 772 mmHg 85%
    09:00 +12°C° 0 mm 2 m/s 771 mmHg 76%
    10:00 +14°C° 0 mm 2 m/s 771 mmHg 67%
    11:00 +16°C° 0 mm 2 m/s 770 mmHg 61%
    12:00 +17°C° 0 mm 2 m/s 770 mmHg 54%
    13:00 +19°C° 0 mm 1 m/s 769 mmHg 47%
    14:00 +19°C° 0 mm 1 m/s 769 mmHg 52%
    15:00 +18°C° 0 mm 1 m/s 768 mmHg 56%
    16:00 +18°C° 0 mm 1 m/s 768 mmHg 60%
    17:00 +15°C° 0 mm 2 m/s 768 mmHg 65%
    18:00 +13°C° 0 mm 2 m/s 768 mmHg 69%
    19:00 +12°C° 0 mm 2 m/s 769 mmHg 74%
    20:00 +10°C° 0 mm 2 m/s 769 mmHg 77%
    21:00 +9°C° 0 mm 2 m/s 769 mmHg 79%
    22:00 +9°C° 0 mm 2 m/s 769 mmHg 81%
    23:00 +8°C° 0 mm 2 m/s 769 mmHg 82%

    6 Junho, Sábado

    Tempo Temperatura Precipitação Vento Pressão Humidade
    00:00 +8°C° 0 mm 2 m/s 769 mmHg 83%
    01:00 +7°C° 0 mm 2 m/s 768 mmHg 84%
    02:00 +7°C° 0 mm 2 m/s 768 mmHg 84%
    03:00 +7°C° 0 mm 3 m/s 768 mmHg 84%
    04:00 +7°C° 0 mm 3 m/s 768 mmHg 83%
    05:00 +7°C° 0 mm 3 m/s 768 mmHg 84%
    06:00 +5°C° 0 mm 3 m/s 768 mmHg 84%
    07:00 +5°C° 0 mm 3 m/s 769 mmHg 85%
    08:00 +8°C° 0 mm 3 m/s 768 mmHg 76%
    09:00 +12°C° 0 mm 2 m/s 768 mmHg 68%
    10:00 +14°C° 0 mm 2 m/s 768 mmHg 59%
    11:00 +15°C° 0 mm 2 m/s 767 mmHg 57%
    12:00 +18°C° 0 mm 1 m/s 767 mmHg 55%
    13:00 +19°C° 0 mm 1 m/s 766 mmHg 53%
    14:00 +18°C° 0 mm 1 m/s 766 mmHg 57%
    15:00 +18°C° 0 mm 1 m/s 765 mmHg 61%
    16:00 +16°C° 0 mm 1 m/s 765 mmHg 65%
    17:00 +14°C° 0 mm 1 m/s 765 mmHg 68%
    18:00 +13°C° 0 mm 1 m/s 766 mmHg 72%
    19:00 +11°C° 0 mm 1 m/s 766 mmHg 76%
    20:00 +9°C° 0 mm 2 m/s 766 mmHg 76%
    21:00 +9°C° 0 mm 2 m/s 766 mmHg 77%
    22:00 +8°C° 0 mm 2 m/s 766 mmHg 78%
    23:00 +8°C° 0 mm 2 m/s 766 mmHg 78%

    7 Junho, Domingo

    Tempo Temperatura Precipitação Vento Pressão Humidade
    00:00 +7°C° 0 mm 2 m/s 765 mmHg 78%
    01:00 +7°C° 0 mm 3 m/s 765 mmHg 79%
    02:00 +7°C° 0 mm 3 m/s 765 mmHg 78%
    03:00 +5°C° 0 mm 3 m/s 765 mmHg 77%
    04:00 +5°C° 0 mm 3 m/s 764 mmHg 77%
    05:00 +5°C° 0 mm 3 m/s 764 mmHg 77%
    06:00 +5°C° 0 mm 3 m/s 765 mmHg 76%
    07:00 +5°C° 0 mm 3 m/s 765 mmHg 76%
    08:00 +8°C° 0 mm 3 m/s 765 mmHg 70%
    09:00 +10°C° 0 mm 3 m/s 765 mmHg 63%
    10:00 +12°C° 0 mm 3 m/s 765 mmHg 57%
    11:00 +13°C° 0 mm 3 m/s 765 mmHg 55%
    12:00 +14°C° 0 mm 4 m/s 764 mmHg 54%
    13:00 +17°C° 0 mm 4 m/s 764 mmHg 53%
    14:00 +15°C° 0.6 mm 5 m/s 764 mmHg 63%
    15:00 +14°C° 0.6 mm 5 m/s 764 mmHg 73%
    16:00 +11°C° 0.6 mm 6 m/s 764 mmHg 83%
    17:00 +10°C° 0.8 mm 6 m/s 765 mmHg 86%
    18:00 +9°C° 0.8 mm 6 m/s 766 mmHg 89%
    19:00 +8°C° 0.8 mm 6 m/s 766 mmHg 92%
    20:00 +8°C° 0.3 mm 5 m/s 767 mmHg 91%
    21:00 +7°C° 0.3 mm 5 m/s 767 mmHg 91%
    22:00 +7°C° 0.3 mm 5 m/s 767 mmHg 90%
    23:00 +6°C° 0.1 mm 5 m/s 767 mmHg 90%

    8 Junho, Segunda-feira

    Tempo Temperatura Precipitação Vento Pressão Humidade
    00:00 +6°C° 0.1 mm 5 m/s 767 mmHg 91%
    01:00 +6°C° 0.1 mm 5 m/s 767 mmHg 91%
    02:00 +6°C° 0.3 mm 5 m/s 768 mmHg 91%
    03:00 +7°C° 0.3 mm 5 m/s 768 mmHg 90%
    04:00 +7°C° 0.3 mm 5 m/s 768 mmHg 90%
    05:00 +8°C° 0.2 mm 5 m/s 768 mmHg 90%
    06:00 +8°C° 0.2 mm 4 m/s 769 mmHg 90%
    07:00 +8°C° 0.2 mm 4 m/s 769 mmHg 90%
    08:00 +8°C° 0.5 mm 4 m/s 770 mmHg 89%
    09:00 +10°C° 0.5 mm 4 m/s 770 mmHg 88%
    10:00 +10°C° 0.5 mm 4 m/s 770 mmHg 87%
    11:00 +11°C° 0.5 mm 4 m/s 770 mmHg 86%
    12:00 +11°C° 0.5 mm 4 m/s 770 mmHg 85%
    13:00 +12°C° 0.5 mm 4 m/s 770 mmHg 84%
    14:00 +12°C° 0.4 mm 4 m/s 770 mmHg 85%
    15:00 +12°C° 0.4 mm 4 m/s 771 mmHg 86%
    16:00 +13°C° 0.4 mm 4 m/s 771 mmHg 87%
    17:00 +12°C° 0.3 mm 4 m/s 771 mmHg 88%
    18:00 +12°C° 0.3 mm 4 m/s 772 mmHg 89%
    19:00 +11°C° 0.3 mm 4 m/s 773 mmHg 90%
    20:00 +11°C° 0.2 mm 3 m/s 773 mmHg 91%
    21:00 +11°C° 0.2 mm 3 m/s 773 mmHg 92%
    22:00 +11°C° 0.2 mm 3 m/s 773 mmHg 92%
    23:00 +11°C° 0 mm 3 m/s 773 mmHg 92%
    Mostrar mais